Regional Weather Roundup
Issued by NWS

Home | Current Version | Previous Version | Text Only | Print | Product List | Glossary On
Versions: 1 2 3 4 5 6 7 8 9 10 11 12 13 14 15 16 17 18 19 20 21 22 23 24 25 26 27 28 29 30 31 32 33 34 35 36 37 38 39 40 41 42 43 44 45 46 47 48 49 50
151
ASUS43 KLOT 242008
RWRIL

ILLINOIS REGIONAL WEATHER ROUNDUP
NATIONAL WEATHER SERVICE CHICAGO/ROMEOVILLE IL
200 PM CST SAT FEB 24 2018

NOTE: "FAIR" INDICATES FEW OR NO CLOUDS BELOW 12,000 FEET WITH NO
SIGNIFICANT WEATHER AND/OR OBSTRUCTIONS TO VISIBILITY.

* THESE STATIONS ARE NOT UNDER NWS QUALITY CONTROL. THEY ALSO MAY NOT
  REPORT WEATHER SUCH AS PRECIPITATION OR FOG.

ILZ001-002-007-009-015-016-024-242100-
NORTHWEST ILLINOIS

CITY           SKY/WX    TMP DP  RH WIND       PRES   REMARKS
MOLINE         LGT RAIN  38  36  92 E14       29.83F VSB 1   WCI  30
STERLING*      LGT RAIN  39  36  89 E15         N/A  WCI  31
SAVANNA*       CLOUDY    36  33  90 E9        29.87F FOG     WCI  29
$$

ILZ003-004-008-010-011-017-018-242100-
NORTH CENTRAL ILLINOIS

CITY           SKY/WX    TMP DP  RH WIND       PRES   REMARKS
ROCKFORD       CLOUDY    39  32  76 E14       29.91F WCI  31
FREEPORT*      CLOUDY    37  32  84 E16       29.89F WCI  27
ROCHELLE*      CLOUDY    39  36  89 E17       29.89F WCI  30
DE KALB*       CLOUDY    40  35  84 E18       29.91F
PERU*          CLOUDY    39  38  95 E12G17    29.87F FOG     WCI  32
$$

ILZ005-006-012>014-019>023-242100-
NORTHEAST ILLINOIS

CITY           SKY/WX    TMP DP  RH WIND       PRES   REMARKS
CHICAGO-OHARE  CLOUDY    40  32  73 E13       29.95F
CHICAGO-MIDWAY CLOUDY    41  34  76 NE12      29.96F
AURORA         CLOUDY    41  35  79 E13       29.92F
LANSING*       CLOUDY    42  39  90 E8        29.96F
JOLIET*        CLOUDY    45  38  77 E12       29.92F
WAUKEGAN       CLOUDY    36  32  85 E14       29.96F FOG     WCI  27
DUPAGE AIRPORT CLOUDY    40  35  83 E15       29.92F HAZE
KANKAKEE*      CLOUDY    44  41  90 E9        29.92F
WHEELING       CLOUDY    39  33  79 E9        29.97F WCI  33
MORRIS*        CLOUDY    43  39  87 E16       29.89F
ROMEOVILLE*    CLOUDY    42  36  80 E13       29.92F
NORTHERLY ISL    N/A     36  32  85 NE7         N/A  WCI  30
$$

LMZ740>746-242100-
SOUTHERN LAKE MICHIGAN

STATION/POSITION SKY/WX   TEMP    WIND        PRES    VSBY  WAVE
                          AIR SEA DIR/SP/G                  HT/PER
                          (F)     (DEG/KT/KT) (MB)    (MI)  (FT/S)
HARRISON CRIB              35      50/ 11/ 12   N/A
BURNHAM HARBOR             36      40/  9/  9   N/A
CALUMET HARBOR             36      40/  8/ 11 1014.1F
BURNS HARBOR               42     100/ 12/ 17 1015.6F
MICHIGAN CITY              42      80/ 14/ 15   N/A
$$

ILZ025>027-034>036-040-047-049-050-058-095>099-242100-
WEST-CENTRAL ILLINOIS

CITY           SKY/WX    TMP DP  RH WIND       PRES   REMARKS
QUINCY         FOG       41  40  96 E14       29.74F VSB 1/2
GALESBURG*     LGT RAIN  40  40 100 E12G18    29.82F
MACOMB*        CLOUDY   N/A N/A N/A E15       29.82F FOG
JACKSONVILLE*  FOG       44  43  98 E13       29.80F VSB 1/4
PITTSFIELD*    FOG       43  43 100 E8        29.78F VSB 1/4
$$

ILZ028>032-037-038-041>044-048-051>054-059>061-242100-
CENTRAL ILLINOIS

CITY           SKY/WX    TMP DP  RH WIND       PRES   REMARKS
PONTIAC        LGT RAIN  43  42  97 E16       29.87F
BLOOMINGTON    LGT RAIN  43  43 100 E15       29.87F FOG
DECATUR        CLOUDY    47  47 100 SE10      29.86F
PEORIA         LGT RAIN  42  41  96 E7        29.86F FOG
LACON*         CLOUDY    40  40 100 E10G18    29.87F FOG
LINCOLN*       CLOUDY    45  45 100 E6        29.86F
SPRINGFIELD    FOG       46  45  96 E12       29.83F VSB 1/4
TAYLORVILLE    CLOUDY    47  47 100 E7        29.86R FOG
$$

ILZ033-039-045-046-055>057-062-063-242100-
EAST-CENTRAL ILLINOIS

CITY           SKY/WX    TMP DP  RH WIND       PRES   REMARKS
CHAMPAIGN      CLOUDY    47  46  97 E14       29.86F
DANVILLE*      CLOUDY    47  46  95 E10       29.86F
RANTOUL*       CLOUDY    48  47  97 E9        29.87F
MATTOON        CLOUDY    50  49  96 SE12      29.86F
PARIS*         CLOUDY    50  49  94 E8        29.88F
$$

ILZ079-100>102-242100-
SOUTHWEST ILLINOIS

CITY           SKY/WX    TMP DP  RH WIND       PRES   REMARKS
ALTON          CLOUDY    46  46 100 E9        29.81F FOG
BELLEVILLE     CLOUDY    55  54  94 SE7       29.78F
CAHOKIA*       CLOUDY    52  51  97 NE3       29.80F FOG
SPARTA*        CLOUDY    52  52 100 E9        29.82F
$$

ILZ064>066-069>071-074>076-080>082-084>086-088>090-092>094-242100-
SOUTH-CENTRAL ILLINOIS

CITY           SKY/WX    TMP DP  RH WIND       PRES   REMARKS
CARBONDALE     CLOUDY    52  52 100 E7        29.82F
CAIRO*         CLOUDY    54  54 100 SE5       29.83F
EFFINGHAM*     CLOUDY    52  52 100 E3        29.89R
MARION         CLOUDY    52  52 100 E6        29.83F
MT. VERNON     CLOUDY    54  53  97 SE8       29.85F
CENTRALIA*     CLOUDY    55  55  99 SE8       29.84F FOG
SALEM*         CLOUDY    56  53  91 SE8       29.85F FOG
METROPOLIS*    CLOUDY    56  56  97 CALM      29.86F VSB 3/4
$$

ILZ067-068-072-073-078-083-087-091-242100-
SOUTHEAST ILLINOIS

CITY           SKY/WX    TMP DP  RH WIND       PRES   REMARKS
LAWRENCEVILLE  CLOUDY    57  53  86 SE13      29.88F
FLORA*         CLOUDY    57  54  88 SE12      29.87R
FAIRFIELD*     CLOUDY    55  55 100 MISG      29.86R FOG
HARRISBURG*    CLOUDY    53  53 100 E7        29.85F
ROBINSON*      CLOUDY    53  52  96 E8        29.89F
CARMI*         CLOUDY    54  54  99 SE9       29.86F
$$

ABBREVIATIONS USED IN REMARKS
   TC - TEMPERATURE IN CELSIUS
  WCI - WIND CHILL INDEX
   HX - HEAT INDEX
  VSB - VISIBILITY
$$





USA.gov is the U.S. government's official web portal to all federal, state and local government web resources and services.